Погода в Нижнегорском

Россия / Республика Крым     45˚26′59″N   34˚44′04″E
темп.,
°C
ветер,
м/с
пор.,
м/с
влажн.,
%
обл.,
%
осадки,
мм/ч
давл.,
гПа
погр.,
м
6 декабря, вс
вс600:00+4˚всв8117485 0.0 1026766
03:00+3˚всв7127874 0.0 1026705
06:00+3˚в8137656 0.0 1026803
09:00+3˚в9137377 0.0 1026848
12:00+4˚в91269100 0.0 1026926
15:00+4˚всв9136795 0.0 1026942
18:00+2˚всв8137028 0.0 1026911
21:00+2˚всв8147023 0.0 1026903
7 декабря, пн
пн700:00+1˚всв8137335 0.0 1025922
03:00+1˚всв9127468 0.0 10251073
06:00+1˚всв91395100 0.3 1023689
09:00+4˚в71282100 0.5 1023717
12:00+6˚в91270100 0.0 1023812
15:00+6˚в10147188 0.0 1022779
18:00+4˚в915765 0.0 1022735
21:00+3˚в8158112 0.0 1022707
8 декабря, вт
вт800:00+4˚в9138084 0.0 1022758
03:00+4˚в8128190 0.0 1021731
06:00+4˚в7118092 0.0 1020631
09:00+4˚в7138277 0.0 1020631
12:00+7˚в9136917 0.0 1020676
15:00+7˚в9127042 0.0 1020664
18:00+6˚в81471100 0.0 1020629
21:00+6˚в71272100 0.0 1020555
9 декабря, ср
ср900:00+6˚в71186100 0.1 1020442
03:00+6˚в7118299 0.1 1020403
06:00+6˚в6109067 0.0 1020385
09:00+7˚в598583 0.0 1021354
12:00+9˚в467994 0.0 1022340
15:00+12˚вюв127290 0.0 1021319
18:00+8˚в33903 0.0 102257
21:00+8˚вюв23902 0.0 102238
10 декабря, чт
чт1000:00+7˚юв23910 0.0 102329
03:00+7˚вюв33910 0.0 102334
06:00+7˚в46920 0.0 102394
09:00+9˚вюв511964 0.0 1023286
12:00+11˚вюв7117950 0.0 1023707
15:00+11˚в797373 0.0 1022671
18:00+7˚в7128216 0.0 1022368
21:00+7˚в7127858 0.0 1021429